When you browse on this site, cookies collect data to enhance your experience and personalize the content and advertising you see.
Visit our Privacy Policy to learn more. By continuing to use the site, you agree to this use of cookies and data.
  • In Romania
  • List of Countries
  • For 7 days
  • Water Temperature
  • Satellite Maps
  • Weather Map
  • Weather Widgets
  • user-avatar
    Login

    Hourly Weather Varna

    Today, 20 April, Saturday

    Time Temperature Precipitation Wind Pressure Humidity
    00:00 +2°C° 0 mm 3 mps 753 mmHg 81%
    01:00 +2°C° 0 mm 3 mps 753 mmHg 81%
    02:00 +2°C° 0 mm 3 mps 753 mmHg 82%
    03:00 +1°C° 0 mm 4 mps 753 mmHg 83%
    04:00 +1°C° 0 mm 4 mps 753 mmHg 83%
    05:00 +1°C° 0 mm 4 mps 753 mmHg 84%
    06:00 +3°C° 0.1 mm 4 mps 753 mmHg 81%
    07:00 +5°C° 0.1 mm 5 mps 753 mmHg 78%
    08:00 +5°C° 0 mm 6 mps 753 mmHg 73%
    09:00 +7°C° 0.1 mm 6 mps 753 mmHg 65%
    10:00 +9°C° 0.1 mm 6 mps 753 mmHg 57%
    11:00 +10°C° 0.1 mm 6 mps 753 mmHg 48%
    12:00 +10°C° 0 mm 6 mps 753 mmHg 48%
    13:00 +10°C° 0 mm 6 mps 753 mmHg 48%
    14:00 +10°C° 0 mm 5 mps 753 mmHg 47%
    15:00 +10°C° 0 mm 5 mps 753 mmHg 51%
    16:00 +10°C° 0 mm 4 mps 753 mmHg 54%
    17:00 +10°C° 0 mm 4 mps 753 mmHg 57%
    18:00 +8°C° 0 mm 3 mps 753 mmHg 60%
    19:00 +7°C° 0 mm 3 mps 753 mmHg 62%
    20:00 +5°C° 0 mm 2 mps 753 mmHg 65%
    21:00 +5°C° 0 mm 2 mps 753 mmHg 64%
    22:00 +5°C° 0 mm 2 mps 753 mmHg 63%
    23:00 +4°C° 0 mm 2 mps 753 mmHg 62%

    Tomorrow, 21 April, Sunday

    Time Temperature Precipitation Wind Pressure Humidity
    00:00 +3°C° 0 mm 3 mps 753 mmHg 64%
    01:00 +3°C° 0 mm 3 mps 753 mmHg 66%
    02:00 +3°C° 0 mm 3 mps 753 mmHg 68%
    03:00 +3°C° 0 mm 3 mps 753 mmHg 70%
    04:00 +3°C° 0 mm 3 mps 753 mmHg 72%
    05:00 +3°C° 0 mm 3 mps 753 mmHg 74%
    06:00 +4°C° 0 mm 3 mps 753 mmHg 71%
    07:00 +7°C° 0 mm 3 mps 753 mmHg 67%
    08:00 +9°C° 0 mm 3 mps 753 mmHg 64%
    09:00 +10°C° 0 mm 3 mps 753 mmHg 59%
    10:00 +12°C° 0 mm 2 mps 753 mmHg 54%
    11:00 +14°C° 0 mm 2 mps 753 mmHg 49%
    12:00 +13°C° 0 mm 2 mps 752 mmHg 51%
    13:00 +13°C° 0 mm 2 mps 752 mmHg 54%
    14:00 +13°C° 0 mm 2 mps 752 mmHg 57%
    15:00 +12°C° 0 mm 2 mps 752 mmHg 59%
    16:00 +11°C° 0 mm 3 mps 751 mmHg 61%
    17:00 +11°C° 0 mm 3 mps 751 mmHg 64%
    18:00 +9°C° 0 mm 3 mps 751 mmHg 68%
    19:00 +8°C° 0 mm 2 mps 751 mmHg 72%
    20:00 +6°C° 0 mm 2 mps 751 mmHg 77%
    21:00 +6°C° 0 mm 2 mps 751 mmHg 77%
    22:00 +7°C° 0 mm 1 mps 751 mmHg 77%
    23:00 +6°C° 0 mm 1 mps 751 mmHg 77%

    Day after tomorrow, 22 April, Monday

    Time Temperature Precipitation Wind Pressure Humidity
    00:00 +6°C° 0 mm 1 mps 751 mmHg 78%
    01:00 +6°C° 0 mm 1 mps 751 mmHg 78%
    02:00 +6°C° 0 mm 1 mps 751 mmHg 79%
    03:00 +6°C° 0 mm 1 mps 751 mmHg 79%
    04:00 +6°C° 0 mm 1 mps 751 mmHg 79%
    05:00 +5°C° 0 mm 2 mps 751 mmHg 78%
    06:00 +6°C° 0 mm 2 mps 751 mmHg 75%
    07:00 +7°C° 0 mm 3 mps 751 mmHg 71%
    08:00 +8°C° 0 mm 4 mps 752 mmHg 67%
    09:00 +10°C° 0 mm 4 mps 752 mmHg 63%
    10:00 +10°C° 0 mm 4 mps 752 mmHg 59%
    11:00 +10°C° 0 mm 5 mps 752 mmHg 56%
    12:00 +10°C° 0 mm 5 mps 752 mmHg 55%
    13:00 +11°C° 0 mm 4 mps 752 mmHg 53%
    14:00 +12°C° 0 mm 4 mps 752 mmHg 52%
    15:00 +11°C° 0 mm 4 mps 752 mmHg 54%
    16:00 +11°C° 0 mm 4 mps 752 mmHg 55%
    17:00 +10°C° 0 mm 4 mps 752 mmHg 57%
    18:00 +8°C° 0 mm 4 mps 752 mmHg 65%
    19:00 +8°C° 0 mm 3 mps 752 mmHg 72%
    20:00 +5°C° 0 mm 3 mps 752 mmHg 79%
    21:00 +5°C° 0 mm 3 mps 752 mmHg 82%
    22:00 +5°C° 0 mm 3 mps 752 mmHg 85%
    23:00 +4°C° 0 mm 3 mps 752 mmHg 88%

    23 April, Tuesday

    Time Temperature Precipitation Wind Pressure Humidity
    00:00 +5°C° 0 mm 2 mps 753 mmHg 88%
    01:00 +5°C° 0 mm 2 mps 753 mmHg 89%
    02:00 +6°C° 0 mm 1 mps 753 mmHg 89%
    03:00 +5°C° 0 mm 2 mps 753 mmHg 88%
    04:00 +5°C° 0 mm 2 mps 753 mmHg 87%
    05:00 +5°C° 0 mm 2 mps 753 mmHg 86%
    06:00 +6°C° 0 mm 2 mps 753 mmHg 81%
    07:00 +8°C° 0 mm 3 mps 753 mmHg 77%
    08:00 +9°C° 0 mm 3 mps 754 mmHg 73%
    09:00 +10°C° 0 mm 4 mps 754 mmHg 69%
    10:00 +10°C° 0 mm 5 mps 754 mmHg 64%
    11:00 +12°C° 0 mm 5 mps 754 mmHg 60%
    12:00 +12°C° 0 mm 5 mps 754 mmHg 59%
    13:00 +12°C° 0 mm 5 mps 754 mmHg 59%
    14:00 +12°C° 0 mm 5 mps 754 mmHg 59%
    15:00 +10°C° 0 mm 5 mps 753 mmHg 63%
    16:00 +9°C° 0 mm 5 mps 753 mmHg 68%
    17:00 +8°C° 0 mm 4 mps 753 mmHg 73%
    18:00 +8°C° 0 mm 4 mps 753 mmHg 75%
    19:00 +8°C° 0 mm 4 mps 754 mmHg 77%
    20:00 +7°C° 0 mm 4 mps 754 mmHg 79%
    21:00 +7°C° 0 mm 4 mps 754 mmHg 80%
    22:00 +7°C° 0 mm 4 mps 754 mmHg 82%
    23:00 +7°C° 0 mm 4 mps 754 mmHg 84%

    24 April, Wednesday

    Time Temperature Precipitation Wind Pressure Humidity
    00:00 +7°C° 0 mm 4 mps 754 mmHg 84%
    01:00 +7°C° 0 mm 4 mps 753 mmHg 85%
    02:00 +7°C° 0 mm 4 mps 753 mmHg 86%
    03:00 +7°C° 0 mm 4 mps 753 mmHg 88%
    04:00 +8°C° 0 mm 3 mps 753 mmHg 91%
    05:00 +7°C° 0 mm 3 mps 753 mmHg 93%
    06:00 +7°C° 0 mm 4 mps 754 mmHg 90%
    07:00 +8°C° 0 mm 4 mps 754 mmHg 86%
    08:00 +9°C° 0 mm 5 mps 754 mmHg 83%
    09:00 +10°C° 0 mm 5 mps 754 mmHg 79%
    10:00 +12°C° 0 mm 5 mps 755 mmHg 75%
    11:00 +13°C° 0 mm 5 mps 755 mmHg 72%
    12:00 +13°C° 0 mm 5 mps 754 mmHg 71%
    13:00 +13°C° 0 mm 6 mps 754 mmHg 70%
    14:00 +13°C° 0 mm 6 mps 754 mmHg 69%
    15:00 +13°C° 0 mm 5 mps 754 mmHg 71%
    16:00 +12°C° 0 mm 5 mps 754 mmHg 73%
    17:00 +12°C° 0 mm 5 mps 754 mmHg 74%
    18:00 +10°C° 0 mm 4 mps 754 mmHg 81%
    19:00 +8°C° 0 mm 4 mps 754 mmHg 87%
    20:00 +8°C° 0 mm 3 mps 754 mmHg 93%
    21:00 +7°C° 0 mm 3 mps 755 mmHg 94%
    22:00 +7°C° 0 mm 3 mps 755 mmHg 94%
    23:00 +7°C° 0 mm 2 mps 755 mmHg 94%

    25 April, Thursday

    Time Temperature Precipitation Wind Pressure Humidity
    00:00 +7°C° 0 mm 2 mps 755 mmHg 94%
    01:00 +7°C° 0 mm 2 mps 755 mmHg 95%
    02:00 +7°C° 0 mm 2 mps 755 mmHg 95%
    03:00 +7°C° 0 mm 3 mps 755 mmHg 95%
    04:00 +7°C° 0 mm 3 mps 755 mmHg 95%
    05:00 +7°C° 0 mm 3 mps 755 mmHg 95%
    06:00 +8°C° 0 mm 3 mps 755 mmHg 90%
    07:00 +8°C° 0 mm 4 mps 755 mmHg 85%
    08:00 +11°C° 0 mm 4 mps 756 mmHg 81%
    09:00 +12°C° 0 mm 4 mps 756 mmHg 76%
    10:00 +13°C° 0 mm 5 mps 756 mmHg 71%
    11:00 +13°C° 0 mm 5 mps 756 mmHg 66%
    12:00 +14°C° 0 mm 5 mps 755 mmHg 65%
    13:00 +14°C° 0 mm 5 mps 755 mmHg 64%
    14:00 +14°C° 0 mm 5 mps 755 mmHg 63%
    15:00 +13°C° 0 mm 5 mps 755 mmHg 66%
    16:00 +13°C° 0 mm 5 mps 754 mmHg 69%
    17:00 +12°C° 0 mm 5 mps 754 mmHg 71%
    18:00 +11°C° 0 mm 4 mps 754 mmHg 78%
    19:00 +8°C° 0 mm 4 mps 754 mmHg 85%
    20:00 +8°C° 0 mm 3 mps 754 mmHg 92%
    21:00 +8°C° 0 mm 3 mps 754 mmHg 92%
    22:00 +8°C° 0 mm 3 mps 754 mmHg 92%
    23:00 +7°C° 0 mm 3 mps 753 mmHg 92%
    Show more